Regional Weather Roundup
Issued by NWS

Home | Current Version | Previous Version | Graphics & Text | Print | Product List | Glossary On
Versions: 1 2 3 4 5 6 7 8 9 10 11 12 13 14 15 16 17 18 19 20 21 22 23 24 25 26 27 28 29 30 31 32 33 34 35 36 37 38 39 40 41 42 43 44 45 46 47 48 49 50
000
ASUS45 KBOU 201407
RWRCO

WEATHER ROUNDUP FOR COLORADO
NATIONAL WEATHER SERVICE DENVER/BOULDER CO
700 AM MST THU NOV 20 2014

NOTE: "FAIR" INDICATES FEW OR NO CLOUDS BELOW 12000 FEET WITH NO
SIGNIFICANT WEATHER AND/OR OBSTRUCTIONS TO VISIBILITY.

COZ001>005-013-030-031-201500-
...NORTHWEST COLORADO...

CITY           SKY/WX    TMP DP  RH WIND       PRES   REMARKS
CRAIG          PTCLDY    11   6  81 CALM      30.12S
HAYDEN         PTCLDY    18  10  73 SE13      30.11S WCI   4
MEEKER         PTCLDY    24  14  65 E5        30.12R WCI  18
MOUNT WERNER   NOT AVBL
STEAMBOAT SPGS PTCLDY    11   9  89 CALM      30.13R
WALDEN         CLOUDY    27  10  50 S9        30.08R WCI  17
$$

COZ006>008-011-201500-
...WEST CENTRAL VALLEYS...

CITY           SKY/WX    TMP DP  RH WIND       PRES   REMARKS
GRAND JUNCTION MOCLDY    22  13  68 SE6       30.14R WCI  14
MONTROSE       CLEAR     19  14  81 SE8       30.16S WCI   9
EAGLE          PTCLDY    18  14  86 CALM      30.19S
RIFLE          PTCLDY    22  15  75 CALM      30.17R
DELTA          CLEAR     19  13  78 CALM      30.17R
NUCLA          MOCLDY    28  21  74 S5        30.18R WCI  23
$$

COZ017>023-064>068-201500-
...SOUTHWEST COLORADO...

CITY           SKY/WX    TMP DP  RH WIND       PRES   REMARKS
DURANGO        PTCLDY    17  14  88 E5        30.14R WCI  10
CORTEZ         CLEAR     19  14  81 E5        30.14R WCI  12
PAGOSA SPRINGS PTCLDY    19  14  81 CALM      30.13F
TELLURIDE      CLOUDY    23   6  49 SE6       30.16S WCI  16
WOLF CREEK PAS CLOUDY    27  -6  24 N5        30.17S WCI  21
$$

COZ009-010-012-014-032>034-037-058>063-201500-
...CENTRAL COLORADO...

CITY           SKY/WX    TMP DP  RH WIND       PRES   REMARKS
ASPEN          PTCLDY    16   8  71 S6        30.12S WCI   7
BUENA VISTA    PTCLDY    23  10  58 CALM      30.10R
COPPER MTN     NOT AVBL
BERTHOUD PASS  CLOUDY    16  10  79 N20G26    30.11S WCI  -1
COTTONWOOD PAS MOCLDY    32 -15  12 NW9       30.10S WCI  24
GUNNISON       PTCLDY     5   0  78 CALM      30.24R
KREMMLING      PTCLDY    10   5  79 CALM      30.17S
LEADVILLE      PTCLDY    17   0  47 NE7       30.11R WCI   8
MONARCH PASS   PTCLDY    18  -6  35 W24       30.23R WCI   0
SALIDA         PTCLDY    32   2  28 NW7       30.17R WCI  26
SUNLIGHT       PTCLDY    23   3  42 CALM      30.15S
WILKERSON PASS CLOUDY    28 -11  17 NW7       30.14S WCI  21
$$

COZ069>075-201500-
...SAN LUIS VALLEY/SANGRE DE CRISTO MOUNTAINS...

CITY           SKY/WX    TMP DP  RH WIND       PRES   REMARKS
ALAMOSA        MOCLDY     8   4  83 W7        30.14R WCI  -3
LA VETA PASS   CLOUDY    21   7  53 S9        30.10S WCI  11
SAGUACHE       MOCLDY    19   9  63 N9        30.15S WCI   9
$$

COZ035-036-038>040-201500-
...NORTHERN COLORADO FRONT RANGE...

CITY           SKY/WX    TMP DP  RH WIND       PRES   REMARKS
DENVER INTL AP PTCLDY    27  18  69 SW6       29.99S WCI  20
DMNS CITY PARK   N/A     25  17  72 S2        30.00R
AURORA         PTCLDY    27  13  55 S9        30.00R WCI  18
FRONT RANGE AP PTCLDY    27  19  74 S13       30.00S WCI  16
ERIE MUNI ARPT PTCLDY    18  17  93 CALM      30.01R
BOULDER MUN AP PTCLDY    27  19  74 S5        30.00R WCI  21
CENTENNIAL     PTCLDY    27  14  58 S8        29.99R WCI  19
BROOMFIELD     PTCLDY    30  21  69 CALM      30.00R
FORT COLLINS   PTCLDY    21  16  79 CALM      30.01R
LONGMONT       PTCLDY    19  15  86 CALM      30.03R
$$

COZ041-046-047-076>085-087-088-201500-
...PIKES PEAK/PALMER DIVIDE AND SOUTHERN FOOTHILLS...

CITY           SKY/WX    TMP DP  RH WIND       PRES   REMARKS
COLO. SPRINGS  MOCLDY    32  10  40 N6        30.02R WCI  26
A. F. ACADEMY  PTCLDY    25   4  42 N9        30.02R WCI  15
ELLICOTT       PTCLDY    33  10  38 E13       30.00R WCI  24
FALCON         NOT AVBL
FORT CARSON    MOCLDY    35  15  44 N9        30.00R WCI  28
LIMON          PTCLDY    15  10  80 CALM      30.01R
MONUMENT HILL  MOCLDY    27   5  39 S8        30.01R WCI  18
TRINIDAD       MOCLDY    23  17  78 W10       30.01S WCI  12
$$

COZ042>045-048>051-090-091-201500-
...NORTHEAST COLORADO...

CITY           SKY/WX    TMP DP  RH WIND       PRES   REMARKS
GREELEY ARPT   PTCLDY    16   7  67 CALM      30.02S
AKRON          PTCLDY    21  17  84 W13       30.00R WCI   9
BURLINGTON     CLEAR     16  11  80 W8        30.02R WCI   5
WRAY           PTCLDY    12  10  89 W6        30.03R WCI   3
STERLING       PTCLDY    14  12  92 SW6       30.02R WCI   5
HOLYOKE        PTCLDY    18  12  79 NW5       30.03R WCI  11
FORT MORGAN    PTCLDY    15  12  87 CALM      30.02S
$$

COZ086-089-092>099-201500-
...SOUTHEAST COLORADO...

CITY           SKY/WX    TMP DP  RH WIND       PRES   REMARKS
PUEBLO         PTCLDY    25  21  85 W5        30.00R WCI  19
LA JUNTA       PTCLDY    28  22  78 W7        30.02R WCI  21
LAMAR          MOCLDY    26  24  92 W6        30.00R WCI  19
SPRINGFIELD      N/A     28  22  78 W7        29.99R WCI  21
$$



USA.gov is the U.S. government's official web portal to all federal, state and local government web resources and services.